Preview of NWS' New Version of Forecast
This preview is not operational and should not be used for support decisions.

Regional Weather Roundup (RWR)

Issued by Philadelphia/Mt Holly (PHI)

                            
000
ASUS41 KPHI 181312
RWRPHI

REGIONAL WEATHER ROUNDUP
NATIONAL WEATHER SERVICE MOUNT HOLLY NJ
900 AM EDT WED SEP 18 2019

NOTE:  "FAIR" INDICATES FEW OR NO CLOUDS BELOW 12,000 FEET WITH NO
SIGNIFICANT WEATHER AND/OR OBSTRUCTIONS TO VISIBILITY.

 * = STATION DOES NOT REPORT PRECIPITATION (E.G. RAIN, SNOW, ETC.) 
        OR FOG.

NJZ015>026-181400-
SOUTHERN NEW JERSEY
  
CITY           SKY/WX    TMP DP  RH WIND       PRES   REMARKS
POMONA         FAIR      63  56  78 N8        30.20R                  
WILDWOOD*      FAIR      66  56  70 N10       30.19R                  
MILLVILLE      FAIR      64  55  72 NE7       30.20R                  
WRIGHTSTOWN    FAIR      64  54  69 NE10      30.22R                  
MOUNT HOLLY    FAIR      63  55  75 N6        30.22R                  
TRENTON        FAIR      61  52  72 NE7       30.23R                  

$$
NJZ001>014-181400-
NORTHERN NEW JERSEY
  
CITY           SKY/WX    TMP DP  RH WIND       PRES   REMARKS
SUSSEX         FAIR      58  49  72 NE8       30.27R                  
ANDOVER*         N/A     56  49  77 VRB7      30.27R                  
MORRISTOWN       N/A     59  55  88 E6        30.26R                  
NEWARK         FAIR      62  50  64 N15       30.24R                  
TETERBORO      FAIR      61  49  64 N7        30.24R                  
CALDWELL       PTSUNNY   61  51  70 VRB5      30.26R                  
SOMERVILLE     FAIR      61  50  67 VRB3      30.23R                  
ALLAIRE*       FAIR      63  55  75 NE9       30.23R                  
TOMS RIVER*    FAIR      62  32  32 N7        30.22R                  

$$
PAZ043-044-047-054-055-060>062-066>071-181400-
EASTERN PENNSYLVANIA
  
CITY           SKY/WX    TMP DP  RH WIND       PRES   REMARKS
PHILADELPHIA   FAIR      64  50  60 NE9       30.22R                  
NORTH PHILA    FAIR      64  52  64 NE9       30.24R                  
BLUE BELL*     PTSUNNY   60  53  78 E6        30.24R                  
DOYLESTOWN     PTSUNNY   60  51  72 NE5       30.23S                  
QUAKERTOWN*    SUNNY     59  50  72 VRB6      30.25                   
PERKASIE*      PTSUNNY   57  54  88 NE5       30.25S                  
POTTSTOWN      FAIR      58  50  75 NE8       30.25S                  
LANCASTER      FAIR      62  48  60 NE8       30.24R                  
COATESVILLE    FAIR      59  48  67 NE5G12    30.25R                  
WEST CHESTER   FAIR      59  46  63 NE6       30.23R                  
READING        FAIR      60  50  69 N7        30.23S                  
ALLENTOWN      FAIR      60  49  66 NE9       30.25R                  
QN CITY/ALNTWN FAIR      59  50  72 NE10      30.27R                  
MOUNT POCONO   FAIR      55  46  71 NE9       30.27R                  
HAZLETON       FAIR      55  46  71 CALM      30.29S                  
LEHIGHTON      FAIR      52  50  93 CALM      30.28R                  
WILKES BARRE   FAIR      57  47  69 CALM      30.28R                  

$$
DEZALL-MDZ008-012-015-019-020-181400-
DELAWARE AND EASTERN MARYLAND
  
CITY           SKY/WX    TMP DP  RH WIND       PRES   REMARKS
WILMINGTON     FAIR      65  55  70 N3        30.22R                  
DOVER          FAIR      67  57  71 N13       30.20R                  
CHESWOLD       SUNNY     64  59  82 NE6       30.21R                  
GEORGETOWN     FAIR      66  58  75 NE7       30.19R                  
EASTON         SUNNY     64  57  77 NE8       30.23R                  
STEVENSVILLE   FAIR      68  57  68 NE7       30.21R                  
ABERDEEN       SUNNY     63  55  77 NE5       30.22R                  
PATUXENT       FAIR      70  55  59 NE12      30.18R                  
OCEAN CITY     CLOUDY    68  54  60 NE12      30.16R                  
WALLOPS ISLAND FAIR      63  55  75 N7        30.16R                  
CAMBRIDGE      SUNNY     66  59  77 VRB6      30.19R                  
SALISBURY      FAIR      65  56  72 N9        30.17R                  

$$
PAZ001-021-NYZ056-072-MDZ011-DCZ001-181400-
OTHER NEARBY LOCATIONS
  
CITY           SKY/WX    TMP DP  RH WIND       PRES   REMARKS
HARRISBURG     FAIR      62  48  60 N3        30.24R                  
STATE COLLEGE  MOSUNNY   54  52  94 E3        30.27R                  
WILLIAMSPORT   FAIR      55  51  86 SW3       30.27R                  
BINGHAMTON     FAIR      52  45  77 E8        30.29R                  
NEW YORK CITY  PTSUNNY   62  50  64 VRB3      30.27R                  
BALTIMORE      FAIR      67  57  70 NE9       30.20R                  
WASHINGTON DC  FAIR      68  58  70 NE7       30.20R                  

$$